����,���ϕ���(m/s),���ϕ���,�ő�u�ԕ���(m/s),�ő啗��������,�C��(��),���x(%),10���Ԉړ��ώZ�J��(mm),1���Ԉړ��ώZ�J��(mm),���J��(mm),�݌v�J��(mm)
2019-12-02T00:00:00+09:00,1.6,��,5.1,�쓌,13.3,59.7,0,0,0,0
2019-12-02T00:01:00+09:00,1.5,��,4.3,��,13.3,59.6,0,0,0,0
2019-12-02T00:02:00+09:00,1.6,��,4.3,��,13.3,59.4,0,0,0,0
2019-12-02T00:03:00+09:00,1.6,��,4.3,��,13.3,59.7,0,0,0,0
2019-12-02T00:04:00+09:00,1.5,��,4.3,��,13.2,59.9,0,0,0,0
2019-12-02T00:05:00+09:00,1.5,��,4.3,��,13.1,60.2,0,0,0,0
2019-12-02T00:06:00+09:00,1.5,��,4.3,��,13.1,60.4,0,0,0,0
2019-12-02T00:07:00+09:00,1.5,��,4.3,��,13.1,60.2,0,0,0,0
2019-12-02T00:08:00+09:00,1.5,��,4.3,��,13,60.3,0,0,0,0
2019-12-02T00:09:00+09:00,1.3,��쓌,3.8,��,13,60.6,0,0,0,0
2019-12-02T00:10:00+09:00,1.2,��쓌,3.8,��,13.1,60.6,0,0,0,0
2019-12-02T00:11:00+09:00,1.1,��쓌,3.6,��쐼,13,60.6,0,0,0,0
2019-12-02T00:12:00+09:00,1,��쓌,2.7,��,13,60.7,0,0,0,0
2019-12-02T00:13:00+09:00,0.9,��쓌,2,��쓌,13,60.9,0,0,0,0
2019-12-02T00:14:00+09:00,0.9,��쓌,2,��쓌,13,61,0,0,0,0
2019-12-02T00:15:00+09:00,1,��쓌,3.6,��,13,60.8,0,0,0,0
2019-12-02T00:16:00+09:00,1.1,��쓌,4.2,��,13.2,59.8,0,0,0,0
2019-12-02T00:17:00+09:00,1.1,��쓌,4.2,��,13.2,59.7,0,0,0,0
2019-12-02T00:18:00+09:00,1.2,��쓌,4.2,��,13.2,59.5,0,0,0,0
2019-12-02T00:19:00+09:00,1.2,��쓌,4.2,��,13.2,59.2,0,0,0,0
2019-12-02T00:20:00+09:00,1.2,��,4.2,��,13.2,59.1,0,0,0,0
2019-12-02T00:21:00+09:00,1.3,��,4.2,��,13.2,59.2,0,0,0,0
2019-12-02T00:22:00+09:00,1.5,��,4.2,��,13.3,58.6,0,0,0,0
2019-12-02T00:23:00+09:00,1.6,��,4.2,��,13.3,58.6,0,0,0,0
2019-12-02T00:24:00+09:00,1.6,��,4.2,��,13.2,58.8,0,0,0,0
2019-12-02T00:25:00+09:00,1.5,��,4.2,��,13.1,59.1,0,0,0,0
2019-12-02T00:26:00+09:00,1.3,��,3.8,��쓌,13.1,59.2,0,0,0,0
2019-12-02T00:27:00+09:00,1.2,��쓌,3.8,��쓌,13.1,59.3,0,0,0,0
2019-12-02T00:28:00+09:00,1.2,��쓌,3.8,��쓌,13.1,59.3,0,0,0,0
2019-12-02T00:29:00+09:00,1.2,��쓌,3.8,��쓌,13.2,58.8,0,0,0,0
2019-12-02T00:30:00+09:00,1.2,��쓌,3.8,��쓌,13.2,58.7,0,0,0,0
2019-12-02T00:31:00+09:00,1.2,�쓌,3.8,��쓌,13.1,59,0,0,0,0
2019-12-02T00:32:00+09:00,1.1,�쓌,3.8,��쓌,13.1,59.3,0,0,0,0
2019-12-02T00:33:00+09:00,1,�쓌,3.1,�쓌,13.1,59.1,0,0,0,0
2019-12-02T00:34:00+09:00,1,���쓌,3.1,�쓌,13,59.2,0,0,0,0
2019-12-02T00:35:00+09:00,1,���쓌,3.1,�쓌,12.8,59.9,0,0,0,0
2019-12-02T00:36:00+09:00,1.1,���쓌,3.1,�쓌,13,59.6,0,0,0,0
2019-12-02T00:37:00+09:00,1.2,���쓌,3.9,�쐼,13.1,59.1,0,0,0,0
2019-12-02T00:38:00+09:00,1.2,�쓌,3.9,�쐼,13.1,58.9,0,0,0,0
2019-12-02T00:39:00+09:00,1.2,�쓌,3.9,�쐼,13,59.3,0,0,0,0
2019-12-02T00:40:00+09:00,1.3,�쓌,3.9,�쐼,13.1,59.3,0,0,0,0
2019-12-02T00:41:00+09:00,1.3,�쓌,3.9,�쐼,13,59.3,0,0,0,0
2019-12-02T00:42:00+09:00,1.3,�쓌,3.9,�쐼,13.1,59.2,0,0,0,0
2019-12-02T00:43:00+09:00,1.3,��쓌,3.9,�쐼,13,59.1,0,0,0,0
2019-12-02T00:44:00+09:00,1.3,��쓌,3.9,�쐼,13.1,58.8,0,0,0,0
2019-12-02T00:45:00+09:00,1.3,��쓌,3.9,�쐼,13.2,58.4,0,0,0,0
2019-12-02T00:46:00+09:00,1.3,��쓌,3.9,�쐼,13.1,58.6,0,0,0,0
2019-12-02T00:47:00+09:00,1.1,��,3.7,��쐼,13.2,58.2,0,0,0,0
2019-12-02T00:48:00+09:00,1.1,��쓌,3.6,���쓌,13.1,58.2,0,0,0,0
2019-12-02T00:49:00+09:00,1,��,3.6,���쓌,13.1,58.5,0,0,0,0
2019-12-02T00:50:00+09:00,1,��,3.6,���쓌,13.1,59,0,0,0,0
2019-12-02T00:51:00+09:00,0.9,��,3.6,���쓌,13,59.2,0,0,0,0
2019-12-02T00:52:00+09:00,0.9,��,2.6,��쐼,13,59.4,0,0,0,0
2019-12-02T00:53:00+09:00,0.9,��,2.6,��쐼,13,59.4,0,0,0,0
2019-12-02T00:54:00+09:00,0.9,��,2.6,��쐼,13,59,0,0,0,0
2019-12-02T00:55:00+09:00,1,��,2.7,��쐼,13.1,58.6,0,0,0,0
2019-12-02T00:56:00+09:00,1,��,2.7,��쐼,13,59,0,0,0,0
2019-12-02T00:57:00+09:00,1,��,2.7,��쐼,13,59.3,0,0,0,0
2019-12-02T00:58:00+09:00,1,��,2.7,��쐼,13,59.5,0,0,0,0
2019-12-02T00:59:00+09:00,1,��,2.7,��쐼,13,59.3,0,0,0,0
2019-12-02T01:00:00+09:00,0.9,��,2.7,��쐼,13,59.2,0,0,0,0
2019-12-02T01:01:00+09:00,0.9,��,2.7,��쐼,13,59.1,0,0,0,0
2019-12-02T01:02:00+09:00,0.9,��,2.7,��쐼,12.9,59.3,0,0,0,0
2019-12-02T01:03:00+09:00,0.9,��,2.7,��쐼,13.2,58.1,0,0,0,0
2019-12-02T01:04:00+09:00,0.8,��,2.7,��쐼,13.2,57.8,0,0,0,0
2019-12-02T01:05:00+09:00,0.8,��,2,��쓌,13.2,57.9,0,0,0,0
2019-12-02T01:06:00+09:00,0.8,��,2,��쓌,13.2,57.9,0,0,0,0
2019-12-02T01:07:00+09:00,0.8,��,2,��쓌,13.1,57.9,0,0,0,0
2019-12-02T01:08:00+09:00,0.9,��,2,��쓌,13.2,57.5,0,0,0,0
2019-12-02T01:09:00+09:00,0.9,��쓌,2,��쓌,13.2,57.2,0,0,0,0
2019-12-02T01:10:00+09:00,0.9,��,2,��쓌,13.1,57.5,0,0,0,0
2019-12-02T01:11:00+09:00,0.9,��,2,��쓌,13.2,57.6,0,0,0,0
2019-12-02T01:12:00+09:00,0.8,��,2,��쓌,13.2,57.5,0,0,0,0
2019-12-02T01:13:00+09:00,0.8,��,2,��쓌,13.1,57.9,0,0,0,0
2019-12-02T01:14:00+09:00,0.7,��,2,��쓌,13,58.2,0,0,0,0
2019-12-02T01:15:00+09:00,0.6,��,2,�쓌,13,58.4,0,0,0,0
2019-12-02T01:16:00+09:00,0.6,��,2,�쓌,13,58.5,0,0,0,0
2019-12-02T01:17:00+09:00,0.6,��,2,�쓌,13.2,57.8,0,0,0,0
2019-12-02T01:18:00+09:00,0.6,��,2,�쓌,13.1,57.7,0,0,0,0
2019-12-02T01:19:00+09:00,0.6,��,1.7,��,13.1,57.8,0,0,0,0
2019-12-02T01:20:00+09:00,0.5,��,1.7,��,13.1,57.7,0,0,0,0
2019-12-02T01:21:00+09:00,0.5,��,1.7,��,12.9,58.2,0,0,0,0
2019-12-02T01:22:00+09:00,0.6,��쓌,1.7,��,12.9,58.6,0,0,0,0
2019-12-02T01:23:00+09:00,0.6,��쓌,1.7,��,12.8,58.7,0,0,0,0
2019-12-02T01:24:00+09:00,0.6,��쓌,2.3,�쓌,12.7,59.4,0,0,0,0
2019-12-02T01:25:00+09:00,0.7,�쓌,2.3,�쓌,12.9,59.2,0,0,0,0
2019-12-02T01:26:00+09:00,0.8,�쓌,2.6,��쓌,12.9,59.1,0,0,0,0
2019-12-02T01:27:00+09:00,0.9,�쓌,2.6,��쓌,12.9,59,0,0,0,0
2019-12-02T01:28:00+09:00,0.9,�쓌,2.6,��쓌,12.8,59.3,0,0,0,0
2019-12-02T01:29:00+09:00,1,�쓌,2.6,��쓌,12.8,59.7,0,0,0,0
2019-12-02T01:30:00+09:00,1.1,�쓌,2.6,��쓌,12.6,60.6,0,0,0,0
2019-12-02T01:31:00+09:00,1.1,�쓌,2.6,��쓌,12.6,61,0,0,0,0
2019-12-02T01:32:00+09:00,1.2,�쓌,2.6,��쓌,12.7,60.6,0,0,0,0
2019-12-02T01:33:00+09:00,1.2,�쓌,2.6,��쓌,12.7,60.2,0,0,0,0
2019-12-02T01:34:00+09:00,1.2,�쓌,2.6,��쓌,12.7,60.3,0,0,0,0
2019-12-02T01:35:00+09:00,1.1,�쓌,2.6,��쓌,12.6,60.3,0,0,0,0
2019-12-02T01:36:00+09:00,1.1,���쓌,2.4,��쓌,12.7,60.3,0,0,0,0
2019-12-02T01:37:00+09:00,1,���쓌,2.4,��쓌,12.6,60.5,0,0,0,0
2019-12-02T01:38:00+09:00,1,���쓌,2.4,��쓌,12.6,60.6,0,0,0,0
2019-12-02T01:39:00+09:00,0.9,��,2.4,��쓌,12.6,60.4,0,0,0,0
2019-12-02T01:40:00+09:00,0.9,��,2.4,��쓌,12.6,60.3,0,0,0,0
2019-12-02T01:41:00+09:00,0.9,��,2.4,��쓌,12.7,60.2,0,0,0,0
2019-12-02T01:42:00+09:00,0.9,��,2.4,�k��,12.8,59.5,0,0,0,0
2019-12-02T01:43:00+09:00,1,��,2.4,�k��,12.9,59.1,0,0,0,0
2019-12-02T01:44:00+09:00,1,��,2.4,�k��,12.9,58.8,0,0,0,0
2019-12-02T01:45:00+09:00,1,��,2.4,�k��,12.8,59,0,0,0,0
2019-12-02T01:46:00+09:00,1,��,2.4,�k��,12.7,59.3,0,0,0,0
2019-12-02T01:47:00+09:00,1,���쓌,2.4,�k��,12.7,59.8,0,0,0,0
2019-12-02T01:48:00+09:00,1,�쓌,1.8,���쓌,12.6,60.3,0,0,0,0
2019-12-02T01:49:00+09:00,0.9,�쓌,1.8,���쓌,12.6,60.4,0,0,0,0
2019-12-02T01:50:00+09:00,0.9,��쓌,1.8,���쓌,12.6,60.5,0,0,0,0
2019-12-02T01:51:00+09:00,0.9,��쓌,1.8,���쓌,12.5,60.7,0,0,0,0
2019-12-02T01:52:00+09:00,0.8,��쓌,1.8,���쓌,12.5,60.9,0,0,0,0
2019-12-02T01:53:00+09:00,0.8,��,1.7,�쓌,12.5,60.8,0,0,0,0
2019-12-02T01:54:00+09:00,0.8,��,1.5,��,12.7,60.2,0,0,0,0
2019-12-02T01:55:00+09:00,0.7,��,1.5,��,12.6,60.1,0,0,0,0
2019-12-02T01:56:00+09:00,0.7,��,1.5,��,12.5,60.3,0,0,0,0
2019-12-02T01:57:00+09:00,0.7,��,1.5,��,12.4,60.6,0,0,0,0
2019-12-02T01:58:00+09:00,0.7,��,1.5,��,12.5,60.8,0,0,0,0
2019-12-02T01:59:00+09:00,0.7,��,1.5,��,12.6,60.4,0,0,0,0
2019-12-02T02:00:00+09:00,0.7,��,1.5,��,12.6,60.2,0,0,0,0
2019-12-02T02:01:00+09:00,0.6,��쓌,1.5,��,12.5,60.3,0,0,0,0
2019-12-02T02:02:00+09:00,0.6,��쓌,1.5,��,12.4,60.8,0,0,0,0
2019-12-02T02:03:00+09:00,0.6,��쓌,1.5,��,12.4,60.9,0,0,0,0
2019-12-02T02:04:00+09:00,0.6,��쓌,1.2,��쐼,12.4,60.9,0,0,0,0
2019-12-02T02:05:00+09:00,0.6,��쓌,1.6,��쐼,12.4,61,0,0,0,0
2019-12-02T02:06:00+09:00,0.7,��,1.6,��쐼,12.4,61.4,0,0,0,0
2019-12-02T02:07:00+09:00,0.7,��,1.6,��쐼,12.3,61.6,0,0,0,0
2019-12-02T02:08:00+09:00,0.8,��,1.8,��,12.3,61.5,0,0,0,0
2019-12-02T02:09:00+09:00,0.8,��,1.8,��,12.4,61.1,0,0,0,0
2019-12-02T02:10:00+09:00,0.8,��,1.8,��,12.5,60.6,0,0,0,0
2019-12-02T02:11:00+09:00,0.9,��,1.8,��,12.4,60.8,0,0,0,0
2019-12-02T02:12:00+09:00,0.9,��,1.8,��,12.4,61.1,0,0,0,0
2019-12-02T02:13:00+09:00,0.9,��,1.8,��,12.3,61.3,0,0,0,0
2019-12-02T02:14:00+09:00,0.9,��,1.8,��,12.3,61.7,0,0,0,0
2019-12-02T02:15:00+09:00,0.9,��쓌,1.8,��,12.2,62.3,0,0,0,0
2019-12-02T02:16:00+09:00,0.9,��쓌,1.8,��,12.2,62.9,0,0,0,0
2019-12-02T02:17:00+09:00,0.9,��쓌,1.8,��,12.1,63.5,0,0,0,0
2019-12-02T02:18:00+09:00,0.9,�쓌,1.7,��,12,64.8,0,0,0,0
2019-12-02T02:19:00+09:00,0.9,�쓌,1.6,��쓌,11.9,65.8,0,0,0,0
2019-12-02T02:20:00+09:00,0.9,�쓌,1.6,��쓌,11.9,65.7,0,0,0,0
2019-12-02T02:21:00+09:00,0.9,�쓌,1.9,�쓌,12,65.9,0,0,0,0
2019-12-02T02:22:00+09:00,0.9,�쓌,1.9,�쓌,12,66,0,0,0,0
2019-12-02T02:23:00+09:00,1,�쓌,1.9,�쓌,12,66.2,0,0,0,0
2019-12-02T02:24:00+09:00,1,�쓌,1.9,�쓌,11.9,66.9,0,0,0,0
2019-12-02T02:25:00+09:00,1,�쓌,1.9,�쓌,11.8,68.6,0,0,0,0
2019-12-02T02:26:00+09:00,1,�쓌,1.9,�쓌,11.7,68.7,0,0,0,0
2019-12-02T02:27:00+09:00,1,�쓌,1.9,�쓌,11.7,69.7,0,0,0,0
2019-12-02T02:28:00+09:00,1,�쓌,1.9,�쓌,11.6,70.3,0,0,0,0
2019-12-02T02:29:00+09:00,1,���쓌,1.9,�쓌,11.6,70.7,0,0,0,0
2019-12-02T02:30:00+09:00,0.9,���쓌,1.9,�쓌,11.6,70.3,0,0,0,0
2019-12-02T02:31:00+09:00,0.9,���쓌,1.8,���쓌,11.6,70.5,0,0,0,0
2019-12-02T02:32:00+09:00,0.8,���쓌,1.4,���쓌,11.5,71.1,0,0,0,0
2019-12-02T02:33:00+09:00,0.8,���쓌,1.4,���쓌,11.5,71.2,0,0,0,0
2019-12-02T02:34:00+09:00,0.8,���쓌,1.5,�쓌,11.5,72.1,0,0,0,0
2019-12-02T02:35:00+09:00,0.8,���쓌,1.5,�쓌,11.4,72,0,0,0,0
2019-12-02T02:36:00+09:00,0.8,��,1.5,�쓌,11.4,73.6,0,0,0,0
2019-12-02T02:37:00+09:00,0.7,��,1.5,�쓌,11.2,74.7,0,0,0,0
2019-12-02T02:38:00+09:00,0.7,��,1.5,�쓌,11.1,75.4,0,0,0,0
2019-12-02T02:39:00+09:00,0.7,��,1.5,�쓌,11.1,75.8,0,0,0,0
2019-12-02T02:40:00+09:00,0.8,���k��,1.5,�쓌,11,76.9,0,0,0,0
2019-12-02T02:41:00+09:00,0.8,���k��,1.5,�쓌,10.9,78.5,0,0,0,0
2019-12-02T02:42:00+09:00,0.8,���k��,1.5,�쓌,10.8,79.9,0,0,0,0
2019-12-02T02:43:00+09:00,0.8,���k��,1.5,�쓌,10.7,81,0,0,0,0
2019-12-02T02:44:00+09:00,0.8,���k��,1.4,���k��,10.7,81.6,0,0,0,0
2019-12-02T02:45:00+09:00,0.8,���k��,1.5,��,10.6,82.1,0,0,0,0
2019-12-02T02:46:00+09:00,0.9,���k��,1.6,���k��,10.6,82.8,0,0,0,0
2019-12-02T02:47:00+09:00,0.9,���k��,1.6,���k��,10.6,83.3,0,0,0,0
2019-12-02T02:48:00+09:00,0.9,���k��,1.6,���k��,10.6,84,0,0,0,0
2019-12-02T02:49:00+09:00,0.9,���k��,1.6,���k��,10.6,84.2,0,0,0,0
2019-12-02T02:50:00+09:00,0.9,���k��,1.6,���k��,10.7,83.9,0,0,0,0
2019-12-02T02:51:00+09:00,0.9,���k��,1.6,���k��,10.7,84,0,0,0,0
2019-12-02T02:52:00+09:00,0.9,���k��,1.6,���k��,10.6,84.5,0,0,0,0
2019-12-02T02:53:00+09:00,1,���k��,1.6,���k��,10.6,84.9,0,0,0,0
2019-12-02T02:54:00+09:00,1,���k��,1.6,���k��,10.5,84.9,0,0,0,0
2019-12-02T02:55:00+09:00,0.9,���k��,1.6,���k��,10.5,85.5,0,0,0,0
2019-12-02T02:56:00+09:00,0.9,��,1.4,�k��,10.4,86.3,0,0,0,0
2019-12-02T02:57:00+09:00,0.8,��,1.4,�k��,10.4,86.5,0,0,0,0
2019-12-02T02:58:00+09:00,0.8,��,1.4,�k��,10.4,87,0,0,0,0
2019-12-02T02:59:00+09:00,0.7,��,1.4,�k��,10.4,87,0,0,0,0
2019-12-02T03:00:00+09:00,0.6,��,1.4,�k��,10.4,87.5,0,0,0,0
2019-12-02T03:01:00+09:00,0.6,���쓌,1.4,�k��,10.4,87.8,0,0,0,0
2019-12-02T03:02:00+09:00,0.6,���쓌,1.2,���k��,10.3,87.7,0,0,0,0
2019-12-02T03:03:00+09:00,0.5,���쓌,1.2,�쓌,10.4,87.8,0,0,0,0
2019-12-02T03:04:00+09:00,0.6,�쓌,1.3,��쓌,10.3,87.5,0,0,0,0
2019-12-02T03:05:00+09:00,0.6,�쓌,1.4,�쓌,10.3,87.5,0,0,0,0
2019-12-02T03:06:00+09:00,0.6,�쓌,1.4,�쓌,10.3,88.1,0,0,0,0
2019-12-02T03:07:00+09:00,0.6,�쓌,1.4,�쓌,10.2,88.4,0,0,0,0
2019-12-02T03:08:00+09:00,0.7,�쓌,1.4,�쓌,10.3,88.5,0,0,0,0
2019-12-02T03:09:00+09:00,0.7,�쓌,1.4,�쓌,10.3,88.7,0,0,0,0
2019-12-02T03:10:00+09:00,0.8,��쓌,1.4,�쓌,10.2,88.5,0,0,0,0
2019-12-02T03:11:00+09:00,0.8,��쓌,1.5,��,10.2,88.4,0,0,0,0
2019-12-02T03:12:00+09:00,0.8,��쓌,1.8,��쓌,10.1,88.8,0,0,0,0
2019-12-02T03:13:00+09:00,0.8,��쓌,1.8,��쓌,10.2,89.3,0,0,0,0
2019-12-02T03:14:00+09:00,0.7,��쓌,1.8,��쓌,10.1,89.5,0,0,0,0
2019-12-02T03:15:00+09:00,0.7,��,1.8,��쓌,10.1,89.5,0,0,0,0
2019-12-02T03:16:00+09:00,0.7,��,1.8,��쓌,10.1,89.4,0,0,0,0
2019-12-02T03:17:00+09:00,0.7,��,1.8,��쓌,10.1,89.5,0,0,0,0
2019-12-02T03:18:00+09:00,0.7,��,1.8,��쓌,10.1,89.5,0,0,0,0
2019-12-02T03:19:00+09:00,0.7,��,1.8,��쓌,10.1,89.7,0,0,0,0
2019-12-02T03:20:00+09:00,0.7,��,1.8,��쓌,10.1,89.8,0,0,0,0
2019-12-02T03:21:00+09:00,0.7,��,1.8,��쓌,10,90,0,0,0,0
2019-12-02T03:22:00+09:00,0.6,��,1.4,��쐼,10,90.3,0,0,0,0
2019-12-02T03:23:00+09:00,0.6,��,1.4,��쐼,10,90.5,0,0,0,0
2019-12-02T03:24:00+09:00,0.6,��,1.4,��쐼,10,90.7,0,0,0,0
2019-12-02T03:25:00+09:00,0.6,��,1.4,��쐼,10,90.9,0,0,0,0
2019-12-02T03:26:00+09:00,0.6,��,1.3,��쐼,9.9,91.1,0,0,0,0
2019-12-02T03:27:00+09:00,0.6,��,1.4,��,9.9,91.3,0,0,0,0
2019-12-02T03:28:00+09:00,0.6,��,1.4,��,9.9,91.6,0,0,0,0
2019-12-02T03:29:00+09:00,0.6,��,1.4,��,9.9,92,0,0,0,0
2019-12-02T03:30:00+09:00,0.6,��,1.4,��,9.9,92.1,0,0,0,0
2019-12-02T03:31:00+09:00,0.6,��,1.4,��,9.9,92.5,0,0,0,0
2019-12-02T03:32:00+09:00,0.6,��,1.4,��,9.9,92.8,0,0,0,0
2019-12-02T03:33:00+09:00,0.5,��,1.4,��,9.9,93,0,0,0,0
2019-12-02T03:34:00+09:00,0.6,��,1.4,��,9.9,93,0,0,0,0
2019-12-02T03:35:00+09:00,0.5,��,1.4,��,9.9,93.1,0,0,0,0
2019-12-02T03:36:00+09:00,0.5,��쓌,1.4,��,9.9,92.9,0,0,0,0
2019-12-02T03:37:00+09:00,0.4,��쓌,1.2,��쓌,9.9,93,0,0,0,0
2019-12-02T03:38:00+09:00,0.4,��쓌,1.2,��쓌,9.9,93.1,0,0,0,0
2019-12-02T03:39:00+09:00,0.4,��쓌,1.2,��쓌,9.9,93,0.5,0.5,0.5,0.5
2019-12-02T03:40:00+09:00,0.5,��쓌,1.2,��쓌,9.8,92.9,0.5,0.5,0.5,0.5
2019-12-02T03:41:00+09:00,0.5,��쓌,1.4,��쓌,9.8,92.9,0.5,0.5,0.5,0.5
2019-12-02T03:42:00+09:00,0.5,��쓌,1.4,��쓌,9.8,92.8,0.5,0.5,0.5,0.5
2019-12-02T03:43:00+09:00,0.6,��쓌,1.8,�쓌,9.8,93,0.5,0.5,0.5,0.5
2019-12-02T03:44:00+09:00,0.7,��쓌,1.8,�쓌,9.8,93,0.5,0.5,0.5,0.5
2019-12-02T03:45:00+09:00,0.8,��쓌,1.8,�쓌,9.8,93.2,0.5,0.5,0.5,0.5
2019-12-02T03:46:00+09:00,0.9,��쓌,2.1,���쓌,9.8,93.4,0.5,0.5,0.5,0.5
2019-12-02T03:47:00+09:00,1,�쓌,2.2,�쓌,9.8,93.6,0.5,0.5,0.5,0.5
2019-12-02T03:48:00+09:00,1.2,�쓌,2.4,�쓌,9.8,93.6,0.5,0.5,0.5,0.5
2019-12-02T03:49:00+09:00,1.3,�쓌,2.4,�쓌,9.8,93.5,0,0.5,0.5,0.5
2019-12-02T03:50:00+09:00,1.5,�쓌,2.7,���쓌,9.8,93.6,0,0.5,0.5,0.5
2019-12-02T03:51:00+09:00,1.6,�쓌,2.7,���쓌,9.8,93.7,0.5,1,1,1
2019-12-02T03:52:00+09:00,1.7,�쓌,2.7,���쓌,9.8,93.8,0.5,1,1,1
2019-12-02T03:53:00+09:00,1.7,�쓌,2.7,���쓌,9.8,93.9,0.5,1,1,1
2019-12-02T03:54:00+09:00,1.8,�쓌,3.1,�쓌,9.7,93.9,0.5,1,1,1
2019-12-02T03:55:00+09:00,1.8,�쓌,3.1,�쓌,9.7,94,0.5,1,1,1
2019-12-02T03:56:00+09:00,1.8,�쓌,3.1,�쓌,9.7,94,0.5,1,1,1
2019-12-02T03:57:00+09:00,1.8,�쓌,3.1,�쓌,9.7,94.1,0.5,1,1,1
2019-12-02T03:58:00+09:00,1.7,�쓌,3.1,�쓌,9.7,94.1,0.5,1,1,1
2019-12-02T03:59:00+09:00,1.6,�쓌,3.1,�쓌,9.7,94.3,0.5,1,1,1
2019-12-02T04:00:00+09:00,1.5,�쓌,3.1,�쓌,9.7,94.5,0.5,1,1,1
2019-12-02T04:01:00+09:00,1.4,�쓌,3.1,�쓌,9.7,94.6,0,1,1,1
2019-12-02T04:02:00+09:00,1.5,�쓌,3.1,�쓌,9.7,94.7,0,1,1,1
2019-12-02T04:03:00+09:00,1.5,�쓌,3.1,�쓌,9.7,94.7,0,1,1,1
2019-12-02T04:04:00+09:00,1.4,�쓌,3.1,�쓌,9.7,94.7,0.5,1.5,1.5,1.5
2019-12-02T04:05:00+09:00,1.4,�쓌,3.1,�쓌,9.7,94.8,0.5,1.5,1.5,1.5
2019-12-02T04:06:00+09:00,1.4,�쓌,3.1,�쓌,9.7,94.7,0.5,1.5,1.5,1.5
2019-12-02T04:07:00+09:00,1.4,�쓌,3.1,�쓌,9.7,94.8,0.5,1.5,1.5,1.5
2019-12-02T04:08:00+09:00,1.5,�쓌,3.1,�쓌,9.7,94.8,0.5,1.5,1.5,1.5
2019-12-02T04:09:00+09:00,1.5,�쓌,3.1,�쓌,9.6,94.8,0.5,1.5,1.5,1.5
2019-12-02T04:10:00+09:00,1.6,�쓌,3.1,�쓌,9.6,94.9,0.5,1.5,1.5,1.5
2019-12-02T04:11:00+09:00,1.7,�쓌,3.1,�쓌,9.6,94.9,0.5,1.5,1.5,1.5
2019-12-02T04:12:00+09:00,1.7,�쓌,3.2,�쓌,9.6,95,0.5,1.5,1.5,1.5
2019-12-02T04:13:00+09:00,1.8,�쓌,3.2,�쓌,9.6,95,0.5,1.5,1.5,1.5
2019-12-02T04:14:00+09:00,1.8,�쓌,3.2,�쓌,9.6,95.1,0,1.5,1.5,1.5
2019-12-02T04:15:00+09:00,1.7,�쓌,3.2,�쓌,9.6,95.1,0,1.5,1.5,1.5
2019-12-02T04:16:00+09:00,1.6,�쓌,3.2,�쓌,9.6,95.1,0,1.5,1.5,1.5
2019-12-02T04:17:00+09:00,1.7,�쓌,3.2,�쓌,9.6,95.1,0,1.5,1.5,1.5
2019-12-02T04:18:00+09:00,1.6,�쓌,3.2,�쓌,9.6,95.2,0,1.5,1.5,1.5
2019-12-02T04:19:00+09:00,1.5,�쓌,3.2,�쓌,9.6,95.2,0.5,2,2,2
2019-12-02T04:20:00+09:00,1.5,�쓌,3.2,�쓌,9.6,95.2,0.5,2,2,2
2019-12-02T04:21:00+09:00,1.4,��쓌,3.2,�쓌,9.6,95.3,0.5,2,2,2
2019-12-02T04:22:00+09:00,1.4,��쓌,3.1,��,9.6,95.3,0.5,2,2,2
2019-12-02T04:23:00+09:00,1.3,��쓌,3.1,��,9.6,95.3,0.5,2,2,2
2019-12-02T04:24:00+09:00,1.2,��쓌,2.6,��,9.6,95.3,0.5,2,2,2
2019-12-02T04:25:00+09:00,1.3,��쓌,2.6,��,9.6,95.3,0.5,2,2,2
2019-12-02T04:26:00+09:00,1.2,��쓌,3,��쓌,9.6,95.4,0.5,2,2,2
2019-12-02T04:27:00+09:00,1.2,��쓌,3,��쓌,9.6,95.4,0.5,2,2,2
2019-12-02T04:28:00+09:00,1.2,��쓌,3,��쓌,9.5,95.4,0.5,2,2,2
2019-12-02T04:29:00+09:00,1.3,��쓌,3.1,��쓌,9.5,95.4,0.5,2.5,2.5,2.5
2019-12-02T04:30:00+09:00,1.3,��쓌,3.8,��,9.6,95.4,0.5,2.5,2.5,2.5
2019-12-02T04:31:00+09:00,1.4,��,3.8,��,9.6,95.5,0.5,2.5,2.5,2.5
2019-12-02T04:32:00+09:00,1.4,��,3.8,��,9.6,95.5,0.5,2.5,2.5,2.5
2019-12-02T04:33:00+09:00,1.4,��,3.8,��,9.6,95.4,0.5,2.5,2.5,2.5
2019-12-02T04:34:00+09:00,1.4,��,3.8,��,9.6,95.4,0.5,2.5,2.5,2.5
2019-12-02T04:35:00+09:00,1.4,��,3.8,��,9.6,95.4,0.5,2.5,2.5,2.5
2019-12-02T04:36:00+09:00,1.4,��,3.8,��,9.6,95.4,0.5,2.5,2.5,2.5
2019-12-02T04:37:00+09:00,1.5,��,3.8,��,9.6,95.3,0.5,2.5,2.5,2.5
2019-12-02T04:38:00+09:00,1.5,��,3.8,��,9.6,95.2,1,3,3,3
2019-12-02T04:39:00+09:00,1.5,��쐼,3.8,��,9.6,95.2,0.5,2.5,3,3
2019-12-02T04:40:00+09:00,1.5,��쐼,3.5,��,9.6,95.1,0.5,2.5,3,3
2019-12-02T04:41:00+09:00,1.5,��쐼,3.5,��,9.7,95.1,0.5,2.5,3,3
2019-12-02T04:42:00+09:00,1.5,��,3.5,��,9.7,94.9,0.5,2.5,3,3
2019-12-02T04:43:00+09:00,1.4,��,3,��쐼,9.6,94.6,1,3,3.5,3.5
2019-12-02T04:44:00+09:00,1.5,��,3,��쐼,9.6,94.5,1,3,3.5,3.5
2019-12-02T04:45:00+09:00,1.5,��,3,��쐼,9.6,94.5,1,3,3.5,3.5
2019-12-02T04:46:00+09:00,1.6,��,3.3,��쓌,9.6,94.5,1,3,3.5,3.5
2019-12-02T04:47:00+09:00,1.6,��,3.3,��쓌,9.7,94.5,1,3,3.5,3.5
2019-12-02T04:48:00+09:00,1.5,��쓌,3.3,��쓌,9.7,94.6,0.5,3,3.5,3.5
2019-12-02T04:49:00+09:00,1.6,��쓌,4,��쐼,9.7,94.4,0.5,3,3.5,3.5
2019-12-02T04:50:00+09:00,1.6,��쓌,4.6,�쓌,9.7,94.2,1,3.5,4,4
2019-12-02T04:51:00+09:00,1.7,��쓌,4.6,�쓌,9.7,94.4,1,3,4,4
2019-12-02T04:52:00+09:00,1.7,��쓌,4.6,�쓌,9.7,94.3,1,3,4,4
2019-12-02T04:53:00+09:00,1.7,��쓌,4.6,�쓌,9.7,94.3,0.5,3,4,4
2019-12-02T04:54:00+09:00,1.8,��쓌,4.6,�쓌,9.8,94.4,0.5,3,4,4
2019-12-02T04:55:00+09:00,1.8,��,4.6,�쓌,9.8,94.4,0.5,3,4,4
2019-12-02T04:56:00+09:00,1.9,��,4.6,�쓌,9.8,94.3,0.5,3,4,4
2019-12-02T04:57:00+09:00,1.9,��,4.6,�쓌,9.8,94.2,0.5,3,4,4
2019-12-02T04:58:00+09:00,2,��,4.6,�쓌,9.8,94,1,3.5,4.5,4.5
2019-12-02T04:59:00+09:00,2,��,4.6,�쓌,9.8,94,1,3.5,4.5,4.5
2019-12-02T05:00:00+09:00,1.9,��,4.6,��쓌,9.9,94.1,0.5,3.5,4.5,4.5
2019-12-02T05:01:00+09:00,1.8,��,4.6,��쓌,10,94.2,0.5,3.5,4.5,4.5
2019-12-02T05:02:00+09:00,1.8,��,4.6,��쓌,10,93.9,0.5,3.5,4.5,4.5
2019-12-02T05:03:00+09:00,1.8,��,4.6,��쓌,10,93.6,0.5,3.5,4.5,4.5
2019-12-02T05:04:00+09:00,1.7,��,3.9,��쐼,10,93.6,0.5,3,4.5,4.5
2019-12-02T05:05:00+09:00,1.7,��,3.9,��쐼,10.1,93.9,0.5,3,4.5,4.5
2019-12-02T05:06:00+09:00,1.6,��쓌,3.9,��쐼,10.1,93.8,0.5,3,4.5,4.5
2019-12-02T05:07:00+09:00,1.5,��쓌,3.9,��쐼,10.3,93.9,0.5,3,4.5,4.5
2019-12-02T05:08:00+09:00,1.6,��쓌,3.9,��쐼,10.3,93.4,0,3,4.5,4.5
2019-12-02T05:09:00+09:00,1.5,��쓌,3.7,��,10.4,92.8,0.5,3.5,5,5
2019-12-02T05:10:00+09:00,1.5,��쓌,3.5,��쓌,10.4,92.3,0.5,3.5,5,5
2019-12-02T05:11:00+09:00,1.5,��쓌,3.5,��쓌,10.5,92.4,0.5,3.5,5,5
2019-12-02T05:12:00+09:00,1.5,��쓌,3.5,��쓌,10.5,92,0.5,3.5,5,5
2019-12-02T05:13:00+09:00,1.5,��쓌,3.5,��쓌,10.5,91.3,0.5,3.5,5,5
2019-12-02T05:14:00+09:00,1.5,��쓌,3.5,��쓌,10.5,91.5,0.5,3.5,5,5
2019-12-02T05:15:00+09:00,1.4,��쓌,3.5,��쓌,10.4,91.5,0.5,3.5,5,5
2019-12-02T05:16:00+09:00,1.5,��쓌,3.9,�쓌,10.6,91.7,1,4,5.5,5.5
2019-12-02T05:17:00+09:00,1.6,��쓌,3.9,�쓌,10.6,91.5,1,4,5.5,5.5
2019-12-02T05:18:00+09:00,1.4,��쓌,3.9,�쓌,10.6,90.8,1,4,5.5,5.5
2019-12-02T05:19:00+09:00,1.4,��쓌,3.9,�쓌,10.5,90.5,0.5,3.5,5.5,5.5
2019-12-02T05:20:00+09:00,1.4,��,3.9,�쓌,10.5,90.3,0.5,3.5,5.5,5.5
2019-12-02T05:21:00+09:00,1.4,��,3.9,�쓌,10.5,90.4,0.5,3.5,5.5,5.5
2019-12-02T05:22:00+09:00,1.5,��쓌,3.9,�쓌,10.6,90.9,0.5,3.5,5.5,5.5
2019-12-02T05:23:00+09:00,1.5,��쓌,3.9,�쓌,10.7,91.3,1,4,6,6
2019-12-02T05:24:00+09:00,1.5,��쓌,3.9,�쓌,10.7,91.4,1,4,6,6
2019-12-02T05:25:00+09:00,1.6,��,3.9,�쓌,10.6,90.8,1,4,6,6
2019-12-02T05:26:00+09:00,1.6,��쓌,3.8,��쓌,10.6,91,0.5,4,6,6
2019-12-02T05:27:00+09:00,1.5,��쓌,3.8,��쓌,10.7,91.2,0.5,4,6,6
2019-12-02T05:28:00+09:00,1.6,��쓌,3.8,��쓌,10.7,91,1,4.5,6.5,6.5
2019-12-02T05:29:00+09:00,1.8,��쓌,5,��쓌,10.7,90.6,1,4,6.5,6.5
2019-12-02T05:30:00+09:00,2,�쓌,5.4,�쓌,10.7,90,1,4,6.5,6.5
2019-12-02T05:31:00+09:00,2.1,�쓌,5.4,�쓌,10.6,89.8,1,4,6.5,6.5
2019-12-02T05:32:00+09:00,2.1,�쓌,5.4,�쓌,10.6,90,1,4,6.5,6.5
2019-12-02T05:33:00+09:00,2.1,�쓌,5.4,�쓌,10.6,90.2,0.5,4,6.5,6.5
2019-12-02T05:34:00+09:00,2.4,�쓌,6,�쓌,10.7,90.3,0.5,4,6.5,6.5
2019-12-02T05:35:00+09:00,2.5,�쓌,6,�쓌,10.7,89.9,0.5,4,6.5,6.5
2019-12-02T05:36:00+09:00,2.6,�쓌,6,�쓌,10.7,89.7,0.5,4,6.5,6.5
2019-12-02T05:37:00+09:00,2.6,�쓌,6,�쓌,10.7,89.7,0.5,4,6.5,6.5
2019-12-02T05:38:00+09:00,2.6,�쓌,6,�쓌,10.7,90,0,3.5,6.5,6.5
2019-12-02T05:39:00+09:00,2.5,�쓌,6,�쓌,10.7,90.2,0,3.5,6.5,6.5
2019-12-02T05:40:00+09:00,2.4,�쓌,6,�쓌,10.8,90.1,0,3.5,6.5,6.5
2019-12-02T05:41:00+09:00,2.4,�쓌,6,�쓌,10.8,89.8,0,3.5,6.5,6.5
2019-12-02T05:42:00+09:00,2.3,�쓌,6,�쓌,10.8,89.7,0,3.5,6.5,6.5
2019-12-02T05:43:00+09:00,2.3,��쓌,6,�쓌,10.8,89.2,0,3,6.5,6.5
2019-12-02T05:44:00+09:00,2.1,��쓌,5.3,���쓌,10.8,89.2,0,3,6.5,6.5
2019-12-02T05:45:00+09:00,2.2,��쓌,5.3,���쓌,10.8,89.8,0,3,6.5,6.5
2019-12-02T05:46:00+09:00,2.3,��쓌,5.7,��,10.9,89.8,0,3,6.5,6.5
2019-12-02T05:47:00+09:00,2.3,��쓌,6.5,��,11,89.4,0,3,6.5,6.5
2019-12-02T05:48:00+09:00,2.5,��쓌,6.5,��,11.1,89.3,0.5,3.5,7,7
2019-12-02T05:49:00+09:00,2.5,��쓌,6.5,��,11.2,89.5,0.5,3.5,7,7
2019-12-02T05:50:00+09:00,2.5,��쓌,6.5,��,11.2,88.6,0.5,3,7,7
2019-12-02T05:51:00+09:00,2.6,��쓌,6.7,��,11.3,88.3,0.5,3,7,7
2019-12-02T05:52:00+09:00,2.8,��쓌,6.7,��,11.3,88.1,0.5,3,7,7
2019-12-02T05:53:00+09:00,2.8,��쓌,6.7,��,11.3,87.7,0.5,3,7,7
2019-12-02T05:54:00+09:00,3,��쓌,7.4,��,11.3,87.2,0.5,3,7,7
2019-12-02T05:55:00+09:00,3.2,��,7.4,��,11.2,86.7,0.5,3,7,7
2019-12-02T05:56:00+09:00,3,��,7.4,��,11.2,87.2,0.5,3,7,7
2019-12-02T05:57:00+09:00,3,��,7.4,��,10.9,86.6,0.5,3,7,7
2019-12-02T05:58:00+09:00,2.9,��,7.4,��,10.8,87.2,0,2.5,7,7
2019-12-02T05:59:00+09:00,2.9,��,7.4,��,10.9,88.6,0,2.5,7,7
2019-12-02T06:00:00+09:00,2.7,��,7.4,��,10.8,88.6,0,2.5,7,7
2019-12-02T06:01:00+09:00,2.7,��,7.4,��,10.7,88.6,0,2.5,7,7
2019-12-02T06:02:00+09:00,2.7,��,7.4,��,11,89.9,0,2.5,7,7
2019-12-02T06:03:00+09:00,2.7,��,7.4,��,11.3,90.1,0,2.5,7,7
2019-12-02T06:04:00+09:00,2.6,��,6.1,��쐼,11.3,89,0,2.5,7,7
2019-12-02T06:05:00+09:00,2.4,��,5.7,��쓌,11.3,88,0,2.5,7,7
2019-12-02T06:06:00+09:00,2.4,��,5.7,��쓌,11.2,87.5,0,2.5,7,7
2019-12-02T06:07:00+09:00,2.3,��,5.7,��쓌,11,87.8,0,2.5,7,7
2019-12-02T06:08:00+09:00,2.4,��,5.7,��쓌,11.1,88.4,0,2.5,7,7
2019-12-02T06:09:00+09:00,2.3,��,5.7,��쓌,11.1,88.5,0,2,7,7
2019-12-02T06:10:00+09:00,2.3,��,5.7,��쓌,11,88.5,0,2,7,7
2019-12-02T06:11:00+09:00,2.1,��,5.7,��쓌,11,89,0,2,7,7
2019-12-02T06:12:00+09:00,1.9,��,5.2,��쓌,11,89.3,0,2,7,7
2019-12-02T06:13:00+09:00,1.7,��,5.2,��쓌,10.9,89.1,0,2,7,7
2019-12-02T06:14:00+09:00,1.5,��,4.9,��쐼,10.9,89.4,0,2,7,7
2019-12-02T06:15:00+09:00,1.3,��,4.9,��쐼,10.8,89.6,0,2,7,7
2019-12-02T06:16:00+09:00,1.3,��,4.9,��쐼,10.9,89.9,0,1.5,7,7
2019-12-02T06:17:00+09:00,1.2,��,4.9,��쐼,11,89.8,0,1.5,7,7
2019-12-02T06:18:00+09:00,1.1,��,3.5,��,10.9,89.6,0,1.5,7,7
2019-12-02T06:19:00+09:00,1.2,��,3.5,��,11,89.9,0,1.5,7,7
2019-12-02T06:20:00+09:00,1.1,��,3.2,���쓌,11,89.8,0,1.5,7,7
2019-12-02T06:21:00+09:00,1.1,��,3.2,���쓌,10.9,89.6,0,1.5,7,7
2019-12-02T06:22:00+09:00,1,��,3.2,���쓌,10.9,89.9,0,1.5,7,7
2019-12-02T06:23:00+09:00,1,��,3.2,���쓌,10.8,90.2,0,1,7,7
2019-12-02T06:24:00+09:00,1.1,��,3.2,���쓌,10.8,90.6,0,1,7,7
2019-12-02T06:25:00+09:00,1.1,��쓌,3.2,���쓌,10.8,91,0,1,7,7
2019-12-02T06:26:00+09:00,1.1,��쓌,3.2,���쓌,10.7,91.2,0,1,7,7
2019-12-02T06:27:00+09:00,1,��쓌,3.2,���쓌,10.7,91.4,0,1,7,7
2019-12-02T06:28:00+09:00,0.9,��쓌,3.1,���쓌,10.9,91.8,0,0.5,7,7
2019-12-02T06:29:00+09:00,0.8,��쓌,1.7,��쓌,10.8,91.6,0,0.5,7,7
2019-12-02T06:30:00+09:00,0.8,��쓌,1.7,��쓌,10.8,91.4,0,0.5,7,7
2019-12-02T06:31:00+09:00,0.7,��쓌,1.7,��쓌,10.8,91.7,0,0.5,7,7
2019-12-02T06:32:00+09:00,0.7,��쓌,1.7,��쓌,10.9,92.2,0,0.5,7,7
2019-12-02T06:33:00+09:00,0.7,��쓌,1.7,��쓌,10.8,91.9,0,0.5,7,7
2019-12-02T06:34:00+09:00,0.6,�쓌,1.6,��쓌,10.8,91.9,0,0.5,7,7
2019-12-02T06:35:00+09:00,0.6,��쓌,1.6,��쓌,10.8,91.9,0,0.5,7,7
2019-12-02T06:36:00+09:00,0.5,��쓌,1.6,��쓌,10.8,92,0,0.5,7,7
2019-12-02T06:37:00+09:00,0.5,��쓌,1.6,��쓌,10.8,92.3,0,0.5,7,7